Wind_Speed
19 20 20 20 18 18 18 18 18 19 19 19 19 19 20 20 21 21 21 22 22 22 22 23 23 23 23 23 23 23 24 24 24 23 24 25 25 26 26 27 28 28 28
21 21 22 21 20 20 20 20 20 20 21 21 21 21 21 21 22 23 23 23 24 24 24 24 24 24 24 24 24 25 25 25 25 25 25 25 25 26 27 27 28 28 28
21 22 23 22 22 22 22 22 22 22 22 22 22 22 23 23 24 24 24 25 25 26 26 26 26 26 26 26 26 26 26 26 26 26 26 25 25 26 27 28 29 29 29
22 22 22 22 22 23 24 24 24 23 23 23 23 24 24 25 25 25 26 26 26 27 27 27 27 27 27 27 27 27 27 27 27 27 27 26 26 27 28 28 28 30 31
23 23 23 23 24 25 25 25 24 24 24 24 25 25 26 27 27 27 27 27 27 28 28 28 27 27 27 28 28 27 27 27 27 28 27 28 28 29 28 29 30 31 32
25 25 25 25 26 27 27 26 25 25 25 26 26 27 27 27 28 28 28 28 29 29 29 29 30 30 29 28 28 28 27 27 27 27 27 28 29 30 29 29 29 30 31
26 26 26 27 27 28 28 26 26 26 27 27 28 28 28 28 29 29 29 30 30 30 30 31 31 31 30 29 28 28 28 29 29 29 29 30 30 30 30 30 30 31 31
27 27 27 27 28 28 28 28 28 28 29 29 29 29 30 30 30 30 30 31 30 30 31 31 31 30 30 30 29 29 29 30 30 29 30 30 30 31 31 31 31 31 31
28 29 29 29 29 29 30 30 29 30 31 31 30 30 31 30 30 30 31 31 31 31 31 31 31 30 30 30 30 30 30 31 31 31 31 31 31 32 32 32 32 32 31
29 30 30 30 31 31 32 32 32 32 32 31 31 30 30 30 30 31 31 31 31 31 31 31 31 31 32 32 32 32 32 32 32 33 33 33 32 32 32 32 32 31 31
30 31 32 32 32 33 33 34 33 33 32 32 31 30 30 30 31 31 31 31 32 32 32 32 33 33 33 33 33 33 33 33 33 33 33 33 32 33 33 33 32 31 31
32 32 32 32 33 33 33 34 34 33 33 32 32 31 31 31 31 31 32 33 33 33 33 33 33 34 33 33 33 33 33 33 34 33 33 32 32 32 32 32 32 32 32
32 32 32 32 33 33 33 34 34 34 34 34 33 32 32 32 32 33 32 33 33 33 33 33 34 34 33 33 33 34 34 34 33 32 32 31 31 31 31 32 32 32 32
31 32 33 33 33 33 34 34 34 34 34 34 34 33 33 32 33 33 33 33 32 33 33 33 33 32 32 32 32 33 32 33 33 32 32 30 30 30 30 30 30 30 30
33 34 34 34 34 34 34 34 34 34 34 34 34 34 34 34 33 33 33 33 33 33 32 32 31 31 30 30 31 31 31 31 32 31 31 30 29 29 29 29 29 29 29
35 35 35 35 34 34 34 33 34 35 35 35 35 35 34 34 33 32 33 33 32 32 31 31 31 30 29 29 30 30 30 30 30 30 29 29 29 29 29 28 28 28 29
35 35 35 35 34 34 34 34 34 35 35 35 36 36 35 34 33 32 32 32 32 32 31 31 30 30 30 30 30 29 30 30 29 29 29 29 29 28 28 27 27 27 27
35 36 36 35 35 35 36 36 36 36 35 35 36 36 36 35 34 33 33 33 33 32 32 31 31 30 30 30 30 29 29 29 29 29 29 28 28 27 27 27 27 27 26
36 35 36 36 36 36 37 37 37 36 36 36 35 35 35 35 34 34 33 33 32 32 31 31 31 30 30 30 30 30 30 30 29 28 28 28 27 27 27 26 26 26 26
35 36 36 37 37 37 37 36 36 36 35 35 35 34 34 35 35 34 33 32 32 32 32 31 31 31 30 29 29 29 29 28 28 27 27 27 27 26 26 25 25 24 24
35 36 37 37 37 37 37 36 36 35 35 34 34 33 34 34 33 32 32 32 31 31 31 31 30 30 29 28 28 28 28 27 27 27 27 27 27 26 25 25 24 24 24
35 35 35 36 36 37 36 35 34 34 34 34 33 33 33 32 32 32 32 32 31 31 31 30 29 29 28 27 27 27 27 27 26 26 26 26 26 25 24 24 24 24 23
35 35 35 35 35 34 34 34 33 33 33 33 33 33 32 31 31 31 30 30 30 29 29 29 29 29 28 28 28 28 28 27 27 27 27 26 25 24 24 23 23 23 22
34 33 33 33 33 33 32 32 32 32 32 31 31 31 30 30 30 30 29 29 29 29 28 28 28 28 27 27 27 27 27 27 26 26 26 25 24 24 24 23 22 22 22
33 32 32 32 32 32 31 31 31 30 30 29 29 30 30 30 29 30 30 30 29 29 28 28 27 26 26 26 26 26 25 25 25 25 24 23 23 23 23 22 21 21 20
33 32 32 31 31 31 30 30 30 30 29 28 28 28 29 29 29 29 28 28 28 27 27 26 25 25 25 24 25 25 25 25 24 24 23 23 22 22 22 21 20 19 19
Wind_Direction
303 304 302 300 296 299 300 301 301 300 299 298 296 296 295 294 293 294 295 294 294 295 294 294 294 292 291 290 287 288 287 287 286 284 282 281 281 281 280 277 275 274 273
303 301 301 299 298 301 303 302 301 300 299 297 296 295 296 294 292 293 293 293 293 293 292 292 293 292 291 290 288 287 286 287 287 286 284 282 281 280 280 279 277 276 275
301 299 298 297 300 299 299 298 298 298 298 297 293 293 293 293 292 292 292 293 293 293 292 292 292 291 290 290 289 288 287 286 286 286 285 284 283 280 279 279 277 275 276
299 298 298 297 300 300 299 298 296 295 295 296 295 294 293 292 292 292 291 291 291 292 292 291 291 290 289 289 289 288 287 286 286 285 284 283 282 281 281 280 279 277 277
299 301 303 300 300 300 298 297 297 294 294 294 294 292 291 291 290 291 290 290 289 291 291 290 290 290 290 290 289 288 288 288 287 285 284 284 283 283 283 282 281 279 278
298 300 302 302 302 300 298 294 294 294 294 294 293 291 290 290 290 289 289 289 289 291 291 290 290 289 289 290 289 287 287 288 288 287 285 285 285 284 283 283 283 282 280
296 298 299 302 301 300 297 295 294 293 294 294 293 290 289 289 289 289 289 289 289 289 289 289 289 289 288 289 288 287 287 286 286 286 286 285 285 285 284 284 284 283 282
291 294 298 300 300 301 299 296 296 294 295 293 292 291 290 290 288 287 287 287 287 288 289 289 289 287 288 289 289 288 288 287 287 287 287 286 285 284 284 284 283 283 282
290 293 294 296 297 299 300 300 299 296 296 294 292 291 290 289 289 288 287 288 288 288 289 289 288 288 287 287 287 288 287 287 287 287 287 286 286 285 284 283 282 281 281
290 290 292 293 295 297 297 298 297 296 295 293 294 292 290 290 289 288 288 288 287 288 288 288 288 287 286 285 286 287 287 286 287 287 287 287 286 285 284 283 282 281 280
289 290 290 291 293 295 295 296 296 295 294 293 293 293 292 291 290 289 288 288 288 289 288 287 285 285 287 286 286 285 285 286 287 288 288 287 287 287 286 283 282 281 281
288 290 291 292 292 293 294 295 295 294 293 293 293 293 292 292 291 290 288 288 287 288 288 288 286 285 285 285 285 286 286 286 287 288 288 287 288 287 285 283 281 280 280
287 289 291 293 293 293 294 295 294 293 292 291 292 292 292 291 290 290 289 288 288 289 289 288 287 286 284 284 285 286 287 288 288 289 288 287 287 287 285 283 281 280 280
287 289 291 293 292 293 293 293 293 291 291 290 290 290 290 290 289 289 288 288 288 289 289 290 289 288 286 286 286 287 287 288 287 287 288 287 287 286 285 284 283 282 282
290 291 291 291 291 292 292 292 292 292 291 291 289 289 290 289 289 288 288 288 288 288 288 289 289 289 288 288 288 288 288 289 289 287 286 286 287 287 285 284 282 282 282
289 290 290 291 291 291 292 292 292 291 291 291 291 290 289 289 289 289 289 289 289 289 288 289 290 290 289 290 290 288 288 289 289 288 286 287 287 286 284 282 282 282 281
289 290 290 290 289 289 290 290 291 291 291 290 291 290 288 288 289 290 290 289 289 289 289 289 290 290 289 289 290 289 288 288 288 288 287 287 288 288 286 284 283 283 282
289 290 290 290 288 288 288 289 290 291 291 290 290 289 287 286 286 288 288 288 289 289 287 287 288 288 288 288 289 288 288 288 289 289 288 288 288 288 288 286 284 284 283
289 290 290 289 289 289 288 289 290 290 290 290 289 289 288 287 286 287 287 287 288 287 286 286 287 287 287 288 289 290 289 289 289 289 289 289 288 289 289 289 286 284 283
290 291 291 290 290 290 289 289 290 291 291 290 289 289 288 287 286 286 286 287 287 287 287 286 286 287 286 286 288 291 292 292 290 289 289 289 289 289 290 289 287 286 285
293 293 293 292 291 291 290 289 290 290 290 290 289 289 289 288 286 285 286 287 287 287 287 287 287 286 285 285 288 290 291 291 290 291 291 290 289 288 288 288 288 286 285
294 294 294 293 292 292 290 289 289 290 290 289 288 289 290 289 287 287 287 288 288 289 289 289 288 287 285 286 286 288 290 289 289 290 290 289 288 286 286 286 286 285 282
294 293 293 294 294 293 292 291 290 290 291 290 289 288 288 287 288 289 289 290 291 291 292 293 291 291 289 288 287 288 290 290 289 288 288 288 288 287 286 286 284 281 280
295 295 294 294 295 296 295 294 293 292 291 290 289 289 288 287 288 289 290 292 292 291 292 293 293 291 291 291 291 290 290 291 291 290 287 287 287 287 286 285 284 282 281
295 295 295 295 295 295 295 295 295 294 292 291 289 289 288 286 286 288 289 290 292 293 292 292 292 291 291 289 289 291 292 292 291 289 287 287 287 286 285 282 280 280 280
296 296 295 294 293 293 294 294 294 294 293 290 289 289 289 288 287 287 289 290 292 293 292 292 291 291 291 291 291 291 293 293 292 288 286 286 286 286 285 283 282 280 281
Height
5870 5869 5867 5865 5863 5862 5860 5858 5856 5855 5853 5851 5850 5848 5847 5845 5843 5842 5840 5838 5837 5835 5834 5832 5830 5829 5827 5825 5824 5823 5822 5821 5820 5819 5817 5816 5814 5813 5812 5811 5810 5810 5810
5865 5864 5862 5860 5858 5856 5855 5853 5851 5850 5848 5846 5844 5842 5840 5839 5837 5835 5834 5832 5831 5829 5827 5825 5824 5822 5820 5819 5817 5816 5815 5813 5812 5811 5810 5809 5807 5806 5805 5803 5803 5802 5801
5861 5858 5856 5855 5853 5851 5849 5847 5845 5843 5841 5839 5838 5836 5834 5832 5830 5828 5827 5825 5824 5822 5820 5818 5816 5815 5813 5811 5810 5808 5807 5806 5804 5804 5803 5801 5800 5798 5797 5796 5795 5794 5793
5855 5853 5851 5849 5847 5845 5843 5841 5839 5837 5835 5833 5831 5829 5827 5825 5823 5821 5820 5818 5816 5815 5813 5811 5809 5807 5805 5804 5803 5801 5799 5798 5796 5795 5794 5793 5792 5791 5789 5788 5787 5786 5784
5850 5848 5846 5843 5841 5839 5837 5834 5832 5830 5828 5826 5824 5822 5820 5818 5816 5814 5812 5810 5809 5807 5805 5804 5802 5800 5798 5796 5795 5793 5792 5790 5788 5787 5786 5785 5784 5782 5781 5779 5778 5777 5775
5843 5842 5839 5837 5834 5832 5829 5827 5825 5823 5821 5818 5816 5814 5812 5810 5808 5806 5804 5802 5801 5799 5797 5796 5794 5792 5790 5788 5787 5785 5783 5782 5781 5779 5778 5776 5775 5773 5772 5770 5769 5768 5766
5836 5834 5832 5830 5827 5824 5821 5819 5817 5815 5813 5811 5809 5806 5804 5802 5800 5798 5796 5794 5792 5791 5789 5787 5785 5783 5781 5780 5778 5776 5775 5773 5772 5771 5769 5768 5766 5764 5762 5761 5759 5758 5757
5829 5827 5825 5823 5820 5817 5814 5812 5809 5808 5806 5803 5800 5798 5795 5793 5792 5790 5788 5786 5784 5782 5781 5779 5776 5774 5773 5771 5769 5768 5766 5764 5763 5761 5760 5758 5756 5754 5753 5751 5750 5748 5747
5821 5819 5817 5815 5813 5810 5807 5804 5802 5800 5797 5794 5791 5789 5787 5785 5783 5781 5779 5777 5775 5774 5772 5770 5767 5766 5764 5762 5761 5759 5757 5755 5753 5752 5750 5748 5746 5744 5742 5741 5739 5738 5737
5812 5811 5809 5807 5804 5802 5799 5796 5793 5791 5789 5786 5783 5781 5779 5776 5774 5772 5770 5768 5766 5765 5762 5760 5759 5757 5755 5753 5751 5750 5748 5746 5744 5742 5740 5738 5736 5734 5732 5730 5729 5727 5726
5804 5802 5800 5798 5796 5793 5790 5788 5785 5782 5780 5777 5775 5772 5770 5768 5766 5763 5761 5759 5757 5755 5753 5751 5749 5747 5745 5743 5741 5740 5738 5736 5734 5732 5730 5727 5725 5723 5721 5720 5718 5717 5716
5796 5794 5791 5789 5786 5784 5781 5778 5776 5773 5770 5768 5766 5763 5761 5759 5757 5754 5752 5749 5748 5746 5744 5741 5739 5737 5735 5733 5731 5729 5727 5725 5723 5721 5719 5717 5715 5713 5711 5709 5708 5706 5705
5787 5784 5782 5779 5777 5774 5771 5769 5766 5763 5761 5759 5756 5754 5752 5749 5747 5745 5742 5740 5738 5736 5734 5731 5729 5727 5725 5723 5721 5719 5717 5715 5713 5711 5709 5707 5705 5702 5700 5699 5697 5696 5695
5777 5775 5772 5770 5767 5765 5762 5759 5757 5754 5752 5749 5747 5744 5742 5740 5737 5735 5732 5730 5728 5725 5723 5721 5719 5716 5714 5712 5710 5708 5706 5705 5702 5701 5699 5697 5695 5693 5691 5689 5688 5687 5686
5767 5765 5762 5760 5757 5755 5752 5750 5747 5745 5742 5740 5737 5735 5732 5730 5727 5725 5722 5720 5718 5715 5713 5711 5709 5706 5704 5702 5700 5698 5696 5694 5692 5690 5688 5687 5685 5683 5681 5680 5678 5677 5677
5757 5755 5752 5750 5747 5745 5743 5740 5737 5735 5732 5730 5727 5724 5722 5719 5717 5714 5712 5710 5708 5705 5703 5702 5699 5697 5695 5693 5691 5689 5687 5685 5683 5680 5679 5677 5675 5674 5672 5670 5669 5668 5667
5747 5744 5742 5739 5737 5735 5732 5730 5728 5725 5722 5720 5717 5714 5711 5709 5707 5704 5702 5700 5698 5696 5694 5692 5690 5688 5686 5684 5682 5680 5678 5676 5674 5672 5670 5668 5666 5664 5663 5661 5660 5659 5658
5736 5734 5732 5729 5727 5724 5722 5719 5717 5715 5712 5709 5706 5703 5701 5699 5696 5694 5692 5690 5688 5686 5684 5682 5680 5678 5676 5674 5672 5670 5668 5667 5665 5663 5661 5659 5657 5656 5654 5653 5651 5650 5649
5726 5724 5721 5719 5716 5714 5711 5709 5706 5704 5701 5699 5696 5693 5691 5688 5686 5684 5682 5680 5678 5676 5674 5672 5671 5669 5667 5665 5662 5660 5659 5657 5655 5654 5652 5650 5649 5647 5645 5644 5643 5641 5640
5716 5713 5710 5708 5705 5703 5700 5697 5695 5692 5690 5688 5686 5683 5681 5678 5676 5674 5672 5670 5668 5666 5665 5663 5661 5659 5657 5655 5653 5651 5650 5648 5646 5645 5643 5642 5640 5639 5637 5636 5634 5633 5632
5705 5702 5700 5697 5694 5691 5689 5686 5684 5682 5680 5678 5675 5673 5670 5668 5666 5664 5662 5661 5659 5657 5655 5653 5651 5649 5648 5646 5645 5643 5641 5639 5638 5636 5635 5634 5632 5631 5629 5628 5626 5625 5624
5694 5692 5689 5686 5683 5681 5678 5676 5674 5671 5669 5667 5665 5663 5660 5658 5656 5655 5653 5651 5649 5647 5645 5643 5641 5640 5638 5637 5636 5634 5632 5631 5629 5628 5627 5625 5624 5622 5621 5620 5618 5617 5617
5684 5681 5679 5676 5673 5671 5668 5666 5663 5661 5659 5657 5654 5652 5650 5648 5647 5645 5643 5642 5640 5638 5636 5634 5632 5631 5629 5628 5626 5625 5624 5622 5621 5619 5618 5617 5615 5614 5613 5612 5611 5610 5609
5675 5672 5669 5666 5663 5661 5658 5656 5653 5651 5649 5647 5645 5643 5641 5639 5637 5636 5634 5632 5631 5629 5627 5625 5623 5622 5620 5619 5617 5616 5614 5613 5612 5610 5609 5608 5607 5606 5605 5604 5603 5602 5602
5665 5662 5659 5656 5654 5651 5649 5646 5644 5642 5640 5638 5636 5634 5632 5630 5628 5627 5625 5623 5622 5620 5618 5616 5614 5613 5611 5610 5608 5606 5605 5604 5603 5602 5601 5600 5599 5598 5597 5596 5596 5595 5595
5656 5653 5650 5647 5645 5642 5639 5637 5635 5633 5631 5629 5627 5625 5623 5621 5619 5618 5616 5614 5613 5611 5609 5607 5606 5604 5603 5601 5600 5598 5597 5595 5594 5593 5592 5592 5591 5591 5590 5589 5589 5588 5588